Hourly Data Report for September 29, 2017

All times are specified in Local Standard Time (LST). Add 1 hour to adjust for Daylight Saving Time where and when it is observed.

MISCOU ISLAND (AUT)
NEW BRUNSWICK

48°00'32.002" N
64°29'39.008" W
4.00 m
8103050
71719
WMI

Download Data

Hourly Data (September 2017)
Hourly Data Report for September 29, 2017
Temp Definition
°C
Dew Point Temp Definition
°C
Rel Hum Definition
%
Wind Dir Definition
10's deg

Wind Spd Definition
km/h
Visibility Definition
km
Stn Press Definition
kPa
Hmdx Definition


Wind Chill Definition


Weather Definition


TIME
00:00 9.7 4.6 70 29 23   100.28     LegendNANA
01:00 9.3 4.0 69 27 21   100.29     LegendNANA
02:00 9.2 4.0 70 29 23   100.32     LegendNANA
03:00 9.0 4.2 72 30 27   100.36     LegendNANA
04:00 8.9 3.9 71 31 31   100.43     LegendNANA
05:00 8.5 3.8 73 30 26   100.49     LegendNANA
06:00 8.5 4.2 75 31 31   100.53     LegendNANA
07:00 8.8 4.6 75 32 32   100.63     LegendNANA
08:00 9.2 4.8 74 34 34   100.73     LegendNANA
09:00 9.6 4.8 72 35 33   100.86     LegendNANA
10:00 10.3 4.7 68 35 30   100.91     LegendNANA
11:00 10.4 5.3 71 34 30   100.98     LegendNANA
12:00 10.2 4.1 66 34 26   101.05     LegendNANA
13:00 10.8 4.8 66 35 28   101.11     LegendNANA
14:00 9.6 5.7 77 2 21   101.18     LegendNANA
15:00 9.8 5.7 76 1 23   101.26     LegendNANA
16:00 9.5 5.5 76 1 27   101.33     LegendNANA
17:00 8.9 4.9 76 1 29   101.42     LegendNANA
18:00 8.8 4.6 75 36 32   101.52     LegendNANA
19:00 8.7 3.9 72 35 29   101.59     LegendNANA
20:00 8.8 3.5 69 34 27   101.67     LegendNANA
21:00 8.9 3.6 70 33 28   101.71     LegendNANA
22:00 8.7 3.9 72 35 28   101.74     LegendNANA
23:00 8.5 4.2 74 35 25   101.78     LegendNANA

Notes on Data Quality.

Legend

  • E = Estimated
  • M = Missing
  • NA = Not Available
  • ‡ = Partner data that is not subject to review by the National Climate Archives
Date modified: